EW5186 Weather Reports


time (UTC)temp
C
wind
direction
speed
KPH
gust
KPH
rain 1hr
cm
rain 24hr
cm
rain mn
cm
humidity
%
barometer
mb
20260509043005 8 49 0.0 0.0 0.00 0.03 0.00 86 1015.3
20260509041546 8 49 0.0 0.0 0.00 0.03 0.00 86 1015.3
20260509040044 7 49 0.0 0.0 0.00 0.03 0.03 85 1015.2
20260509034524 7 49 0.0 0.0 0.00 0.03 0.03 85 1015.2
20260509033023 7 49 0.0 0.0 0.00 0.03 0.03 85 1015.1
20260509031522 7 49 0.0 0.0 0.00 0.03 0.03 84 1014.9
20260509030012 7 49 0.0 1.6 0.00 0.03 0.03 83 1014.8
20260509024510 6 50 0.0 1.6 0.00 0.03 0.03 85 1014.6
20260509023008 5 281 0.0 0.0 0.00 0.03 0.03 86 1014.8
20260509021508 6 281 0.0 0.0 0.00 0.03 0.03 84 1014.6
20260509020006 6 280 0.0 0.0 0.00 0.03 0.03 83 1014.7
20260509014515 6 280 0.0 0.0 0.00 0.03 0.03 83 1014.6
20260509013008 7 281 0.0 0.0 0.00 0.03 0.03 82 1014.6
20260509011547 7 280 0.0 0.0 0.00 0.03 0.03 80 1014.4
20260509010046 7 281 0.0 0.0 0.00 0.03 0.03 80 1014.0
20260509004527 8 281 0.0 0.0 0.00 0.03 0.03 78 1013.5
20260509003027 8 281 0.0 0.0 0.00 0.03 0.03 76 1013.3
20260509001530 8 281 0.0 0.0 0.00 0.03 0.03 74 1013.4
20260509000025 10 281 0.0 0.0 0.00 0.03 0.03 72 1013.3
20260508234524 11 281 0.0 0.0 0.00 0.03 0.03 65 1013.1
20260508233024 12 281 0.0 1.6 0.00 0.03 0.03 62 1012.9
20260508231523 13 269 0.0 0.0 0.00 0.03 0.03 60 1012.7
20260508230022 13 281 0.0 8.0 0.00 0.03 0.03 55 1012.4
20260508224524 14 279 1.6 9.7 0.00 0.03 0.03 52 1012.1
20260508223024 15 258 1.6 11.3 0.00 0.03 0.03 53 1012.1
20260508221503 15 280 4.8 16.1 0.00 0.03 0.03 51 1012.3
20260508220011 15 25 1.6 14.5 0.00 0.03 0.03 52 1012.3
20260508214545 15 299 0.0 8.0 0.00 0.03 0.03 52 1012.4
20260508213051 15 340 0.0 9.7 0.00 0.03 0.03 52 1012.6
20260508211540 15 335 0.0 11.3 0.00 0.03 0.03 55 1012.3
20260508210035 15 232 3.2 12.9 0.00 0.03 0.03 56 1012.3
20260508204532 14 172 3.2 9.7 0.00 0.03 0.03 59 1012.4
20260508203029 13 276 0.0 11.3 0.00 0.03 0.03 63 1012.4
20260508201533 13 283 1.6 9.7 0.03 0.03 0.03 66 1012.7
20260508200028 12 293 0.0 4.8 0.03 0.03 0.03 72 1012.7
20260508194531 11 314 0.0 9.7 0.03 0.03 0.03 76 1012.8
20260508193028 11 98 0.0 19.3 0.03 0.03 0.03 75 1013.0
20260508191515 13 280 0.0 6.4 0.00 0.00 0.00 55 1012.4
20260508190012 14 248 0.0 8.0 0.00 0.00 0.00 53 1011.6
20260508184553 15 52 0.0 11.3 0.00 0.00 0.00 50 1011.5
20260508183049 15 310 1.6 16.1 0.00 0.00 0.00 48 1011.8
20260508181557 14 306 1.6 8.0 0.00 0.00 0.00 49 1012.1
20260508180041 14 357 3.2 17.7 0.00 0.00 0.00 46 1012.0
20260508174545 16 264 6.4 25.7 0.00 0.00 0.00 43 1011.7
20260508173036 15 320 4.8 19.3 0.00 0.00 0.00 47 1011.9
20260508171536 15 231 1.6 12.9 0.00 0.00 0.00 46 1012.0
20260508170035 15 231 3.2 16.1 0.00 0.00 0.00 43 1011.6
20260508164533 16 342 3.2 11.3 0.00 0.00 0.00 47 1011.8
20260508163038 16 342 3.2 12.9 0.00 0.00 0.00 47 1011.8
20260508161522 15 338 0.0 9.7 0.00 0.00 0.00 52 1011.9
20260508160015 15 255 1.6 9.7 0.00 0.00 0.00 47 1012.3
20260508154500 15 256 3.2 9.7 0.00 0.00 0.00 42 1012.3
20260508153103 16 233 0.0 9.7 0.00 0.00 0.00 48 1012.2
20260508153002 16 334 0.0 9.7 0.00 0.00 0.00 46 1012.2
20260508151602 15 339 1.6 8.0 0.00 0.00 0.00 49 1012.3
20260508150056 15 79 1.6 9.7 0.00 0.00 0.00 48 1012.4
20260508144557 15 211 1.6 6.4 0.00 0.00 0.00 48 1012.4
20260508143058 15 323 4.8 12.9 0.00 0.00 0.00 46 1012.6
20260508141557 14 277 3.2 9.7 0.00 0.00 0.00 51 1012.7
20260508140050 13 313 1.6 9.7 0.00 0.00 0.00 51 1012.7
20260508134558 13 346 1.6 8.0 0.00 0.00 0.00 51 1012.9
20260508133036 14 249 0.0 9.7 0.00 0.00 0.00 51 1013.1
20260508131535 13 332 0.0 6.4 0.00 0.00 0.00 55 1013.2
20260508130030 13 305 1.6 6.4 0.00 0.00 0.00 55 1013.3
20260508124529 12 58 0.0 6.4 0.00 0.00 0.00 57 1013.3
20260508123026 12 338 0.0 6.4 0.00 0.00 0.00 60 1013.3
20260508121534 12 324 1.6 8.0 0.00 0.00 0.00 60 1013.4
20260508120022 12 213 0.0 1.6 0.00 0.00 0.00 63 1013.3
20260508114519 11 293 0.0 4.8 0.00 0.00 0.00 63 1013.2
20260508113106 11 217 0.0 3.2 0.00 0.00 0.00 67 1013.1
20260508111558 10 101 0.0 3.2 0.00 0.00 0.00 65 1013.1
20260508110035 8 14 0.0 6.4 0.00 0.00 0.00 70 1013.1
20260508104534 7 250 0.0 0.0 0.00 0.00 0.00 73 1013.0
20260508103014 7 250 0.0 0.0 0.00 0.00 0.00 73 1012.9
20260508101512 7 250 0.0 0.0 0.00 0.00 0.00 73 1012.6
20260508100013 7 250 0.0 0.0 0.00 0.10 0.00 71 1012.3
20260508094509 7 250 0.0 0.0 0.00 0.10 0.00 70 1012.2
20260508093009 8 257 0.0 4.8 0.00 0.10 0.00 63 1012.2
20260508091509 8 106 0.0 1.6 0.00 0.10 0.00 62 1012.2
20260508090006 8 49 0.0 3.2 0.00 0.23 0.00 60 1012.4
20260508084507 8 310 0.0 4.8 0.00 0.23 0.00 61 1012.3
20260508083048 8 341 0.0 9.7 0.00 0.23 0.00 60 1012.2
20260508081608 8 208 0.0 3.2 0.00 0.23 0.00 63 1012.1
20260508080027 7 2 0.0 3.2 0.00 0.41 0.00 67 1012.0
20260508074529 8 340 0.0 1.6 0.00 0.41 0.00 67 1012.0
20260508073007 7 9 0.0 12.9 0.00 0.41 0.00 66 1012.1
20260508071507 7 350 0.0 4.8 0.00 0.41 0.00 70 1012.3
20260508070044 6 101 0.0 1.6 0.00 0.61 0.00 74 1011.8
20260508064539 6 72 0.0 0.0 0.00 0.61 0.00 79 1011.4
20260508063030 5 114 0.0 0.0 0.00 0.61 0.00 81 1011.0
20260508061517 5 177 0.0 0.0 0.00 0.61 0.00 82 1010.9
20260508060105 5 177 0.0 0.0 0.00 0.61 0.00 83 1010.6
20260508054555 5 177 0.0 0.0 0.00 0.61 0.00 85 1010.6
20260508053039 4 177 0.0 0.0 0.00 0.61 0.00 82 1010.7
20260508051535 4 177 0.0 0.0 0.00 0.61 0.00 83 1010.5
20260508050015 4 177 0.0 0.0 0.00 0.61 0.00 84 1010.5
20260508044514 4 177 0.0 0.0 0.00 0.61 0.00 84 1010.6